[[{"header":{"parameterUnit":"m.s-1","parameterCategory":1,"la1":30.2991,"la2":30.254,"lo1":-89.0895,"lo2":-89.0444,"dy":0.0017,"dx":0.0017,"nx":28,"ny":28,"refTime":"2025-03-24T09:00:00:Z","depth":0,"parameterNumber":2,"parameterNumberName":"U-component_of_WINDS"},"data":[0,0,0,0,0,0,0,0,0,0,0,0,0,0,0,0,0,0,0,0,0,0,0,0,0,0,0,0,0,0,0,0,0,0,0,0,0,0,0,0,0,0,0,0,0,0,0,0,0,0,0,0,0,0,0,0,0,0,-0.9216,-0.9215,0,-0.9178,-0.9177,-0.9177,-0.9127,-0.9126,-0.9125,-0.9124,-0.9085,-0.9085,-0.9084,0,0,0,0,0,0,0,0,0,0,0,0,0,-0.9244,-0.9244,-0.9216,-0.9215,-0.9215,-0.9178,-0.9177,-0.9177,-0.9127,-0.9126,-0.9125,-0.9124,-0.9085,-0.9085,-0.9084,0,0,0,0,0,0,0,0,0,0,0,0,0,-0.9221,-0.9243,-0.9216,-0.9185,-0.9182,-0.9178,-0.9177,-0.9177,-0.9127,-0.9126,-0.9125,-0.9123,-0.9085,-0.9085,-0.9084,-0.9107,0,0,-0.9083,-0.9083,0,0,0,0,0,0,0,0,-0.9223,-0.922,-0.919,-0.9187,-0.9184,-0.9156,-0.9173,-0.9153,-0.9127,-0.9148,-0.9124,-0.9123,-0.9109,-0.9107,-0.9102,-0.9105,-0.9103,-0.9083,-0.9083,-0.9082,-0.9082,0,0,0,0,0,0,0,-0.9224,-0.9222,-0.9201,-0.919,-0.9186,-0.9173,-0.9169,-0.9169,-0.9136,-0.9146,-0.9142,-0.9139,-0.9107,-0.9103,-0.9101,-0.9103,-0.9083,-0.9083,-0.9082,-0.9082,-0.9121,-0.9122,0,0,0,0,0,0,-0.9231,-0.9223,-0.9202,-0.92,-0.9201,-0.9174,-0.9169,-0.9166,-0.9136,-0.913,-0.914,-0.9136,-0.9104,-0.9102,-0.91,-0.9124,-0.9082,-0.9082,-0.9082,-0.912,-0.9121,-0.9123,0,0,0,0,0,0,-0.9231,-0.9229,-0.9203,-0.921,-0.9206,-0.9175,-0.9172,-0.9166,-0.9161,-0.9131,-0.9125,-0.9141,-0.9103,-0.91,-0.9105,-0.9122,-0.9082,-0.9082,-0.9118,-0.912,-0.9122,-0.9172,0,0,0,0,0,0,-0.9232,-0.923,-0.9238,-0.9211,-0.9206,-0.921,-0.9173,-0.9166,-0.9161,-0.9156,-0.9131,-0.9126,-0.9102,-0.9106,-0.9105,-0.912,-0.9081,-0.9117,-0.9119,-0.9121,-0.9169,-0.9176,-0.9181,0,0,0,0,0,-0.9234,-0.9254,-0.9239,-0.9236,-0.9216,-0.9211,-0.9208,-0.9181,-0.9163,-0.9171,-0.9151,-0.9126,-0.912,-0.9107,-0.9105,-0.9121,-0.9115,-0.9118,-0.9121,-0.9166,-0.9174,-0.9181,0,0,0,0,0,0,-0.9283,-0.925,-0.9233,-0.9245,-0.9231,-0.9203,-0.9212,-0.919,-0.9182,-0.9178,-0.9144,-0.9139,-0.9148,-0.9135,-0.9121,-0.9141,-0.9114,-0.9117,-0.9149,-0.9157,-0.9163,-0.9165,-0.9081,0,0,0,0,0,-0.9296,-0.9295,-0.9265,-0.9279,-0.9273,-0.9244,-0.9241,-0.9221,-0.9205,-0.9199,-0.918,-0.9166,-0.9161,-0.9158,-0.9151,-0.9167,-0.9161,-0.9177,-0.9183,-0.9188,-0.9191,-0.9198,-0.9205,-0.9132,-0.9132,-0.9132,0,0,-0.9321,-0.9303,-0.9304,-0.9288,-0.9275,-0.9275,-0.9239,-0.924,-0.924,-0.9199,-0.9203,-0.9189,-0.917,-0.9181,-0.9184,-0.917,-0.921,-0.9192,-0.9196,-0.9196,-0.9202,-0.9209,-0.9215,-0.9134,-0.9134,-0.9133,0,0,-0.9367,-0.9354,-0.9363,-0.9351,-0.9332,-0.9313,-0.9315,-0.929,-0.9279,-0.9282,-0.9252,-0.925,-0.9242,-0.923,-0.9223,-0.9265,-0.9242,-0.9264,-0.9296,-0.9304,-0.9309,-0.9314,-0.9329,-0.9335,-0.9267,-0.9267,-0.9267,0,-0.9401,-0.94,-0.9371,-0.9374,-0.9368,-0.9331,-0.9341,-0.933,-0.931,-0.9307,-0.9291,-0.928,-0.9265,-0.9272,-0.9283,-0.9278,-0.928,-0.9267,-0.9311,-0.9316,-0.932,-0.9333,-0.9339,-0.927,-0.9269,-0.9269,-0.9269,0,-0.9443,-0.9442,-0.9452,-0.9434,-0.9429,-0.9435,-0.9407,-0.9405,-0.9386,-0.9368,-0.9371,-0.9352,-0.9341,-0.9342,-0.9323,-0.9346,-0.9338,-0.9317,-0.929,-0.933,-0.9342,-0.9347,-0.9274,-0.9273,-0.9272,-0.9271,0,0,-0.9519,-0.9485,-0.9489,-0.948,-0.9457,-0.9456,-0.946,-0.945,-0.9449,-0.9436,-0.9439,-0.9433,-0.9414,-0.9406,-0.9385,-0.9392,-0.9426,-0.937,-0.9369,-0.9381,-0.945,-0.9466,-0.9473,-0.9411,-0.9411,-0.9412,-0.9452,0,-0.9561,-0.9567,-0.9541,-0.9553,-0.9552,-0.9518,-0.9522,-0.9508,-0.9491,-0.9488,-0.9469,-0.9465,-0.944,-0.9435,-0.944,-0.9421,-0.9439,-0.9418,-0.9413,-0.9413,-0.9418,-0.9479,-0.9496,-0.9534,-0.9457,-0.9457,-0.9458,0,-0.961,-0.9601,-0.9614,-0.9589,-0.9588,-0.9592,-0.958,-0.9577,-0.9561,-0.9548,-0.954,-0.9516,-0.9518,-0.9492,-0.9495,-0.9481,-0.9477,-0.9467,-0.9468,-0.9466,-0.9438,-0.9479,-0.9546,-0.9552,-0.9465,-0.9465,-0.9464,0,-0.9665,-0.9655,-0.9661,-0.9655,-0.9627,-0.9631,-0.9619,-0.9601,-0.9596,-0.9586,-0.9583,-0.9573,-0.9567,-0.956,-0.9534,-0.9517,-0.954,-0.9511,-0.9529,-0.953,-0.9535,-0.9535,-0.9602,-0.9533,-0.9533,-0.9533,-0.9533,0,-0.9714,-0.9723,-0.9685,-0.9689,-0.9698,-0.9668,-0.9678,-0.9663,-0.9647,-0.9647,-0.9617,-0.9618,-0.9583,-0.958,-0.956,-0.9565,-0.9563,-0.9553,-0.9547,-0.9556,-0.9557,-0.9553,-0.9549,-0.9535,-0.9534,-0.9534,-0.9534,0,-0.9776,-0.9751,-0.9756,-0.9729,-0.9723,-0.9731,-0.9707,-0.971,-0.9691,-0.9692,-0.969,-0.9661,-0.9656,-0.963,-0.9618,-0.9604,-0.9617,-0.9606,-0.9623,-0.9619,-0.9638,-0.9637,-0.9704,-0.9712,-0.9639,-0.9639,-0.964,0,-0.981,-0.9816,-0.979,-0.9788,-0.9778,-0.9775,-0.977,-0.974,-0.9737,-0.9718,-0.9723,-0.9715,-0.9707,-0.97,-0.9678,-0.9669,-0.9658,-0.9682,-0.9656,-0.9664,-0.9658,-0.9658,-0.9658,-0.9688,-0.9689,-0.9689,-0.969,0,-0.9871,-0.9858,-0.9853,-0.9843,-0.9838,-0.9828,-0.9817,-0.9817,-0.9784,-0.9781,-0.9776,-0.977,-0.9758,-0.9751,-0.9738,-0.9726,-0.9702,-0.9698,-0.9702,-0.971,-0.972,-0.9715,-0.9638,-0.9697,-0.9696,-0.9696,-0.9695,-0.9695,-0.992,-0.9923,-0.9906,-0.99,-0.9889,-0.9879,-0.988,-0.9862,-0.9857,-0.9845,-0.9828,-0.9824,-0.9807,-0.9788,-0.9777,-0.9774,-0.9761,-0.9766,-0.9767,-0.9769,-0.9773,-0.9721,-0.9772,-0.9771,-0.9771,-0.9771,-0.9771,0,-0.9979,-0.9966,-0.9962,-0.9947,-0.9943,-0.9921,-0.9908,-0.9905,-0.9903,-0.9889,-0.9882,-0.9876,-0.9869,-0.9846,-0.9836,-0.9838,-0.9827,-0.9836,-0.9836,-0.9833,-0.9786,-0.9783,-0.9845,-0.9845,-0.9845,-0.9845,-0.9845,-0.9845,-1.001,-1.0015,-1.0001,-1.0,-0.9987,-0.9983,-0.9978,-0.9968,-0.9957,-0.9951,-0.9945,-0.993,-0.9913,-0.9902,-0.9894,-0.9887,-0.9885,-0.9898,-0.9888,-0.9844,-0.9837,-0.983,-0.9828,-0.9898,-0.9898,-0.9936,-0.9936,-0.9937]},{"header":{"parameterUnit":"m.s-1","parameterCategory":1,"la1":30.2991,"la2":30.254,"lo1":-89.0895,"lo2":-89.0444,"dy":0.0017,"dx":0.0017,"nx":28,"ny":28,"refTime":"2025-03-24T09:00:00:Z","depth":0,"parameterNumber":3,"parameterNumberName":"V-component_of_WINDS"},"data":[0,0,0,0,0,0,0,0,0,0,0,0,0,0,0,0,0,0,0,0,0,0,0,0,0,0,0,0,0,0,0,0,0,0,0,0,0,0,0,0,0,0,0,0,0,0,0,0,0,0,0,0,0,0,0,0,0,0,1.1544,1.1544,0,1.1547,1.1547,1.1547,1.1559,1.1559,1.156,1.156,1.1562,1.1562,1.1561,0,0,0,0,0,0,0,0,0,0,0,0,0,1.1547,1.1546,1.1544,1.1544,1.1544,1.1547,1.1547,1.1547,1.1559,1.1559,1.156,1.156,1.1562,1.1562,1.1561,0,0,0,0,0,0,0,0,0,0,0,0,0,1.1547,1.1546,1.1544,1.155,1.1551,1.1547,1.1547,1.1547,1.1559,1.1559,1.156,1.156,1.1562,1.1562,1.1561,1.1551,0,0,1.156,1.156,0,0,0,0,0,0,0,0,1.1547,1.1547,1.1549,1.155,1.1551,1.1553,1.1549,1.1548,1.1559,1.1556,1.156,1.156,1.1558,1.1558,1.1558,1.1551,1.1551,1.156,1.156,1.156,1.156,0,0,0,0,0,0,0,1.1547,1.1547,1.1545,1.1549,1.155,1.1553,1.1553,1.1549,1.1555,1.1556,1.1557,1.1557,1.1559,1.1558,1.1558,1.1551,1.156,1.156,1.156,1.156,1.1534,1.1534,0,0,0,0,0,0,1.1546,1.1547,1.1545,1.1545,1.155,1.1552,1.1553,1.1552,1.1555,1.1556,1.1557,1.1558,1.1559,1.1559,1.1558,1.1545,1.156,1.156,1.1559,1.1535,1.1534,1.1534,0,0,0,0,0,0,1.1546,1.1546,1.1545,1.1546,1.1546,1.1552,1.1551,1.1552,1.1551,1.1555,1.1556,1.1555,1.1559,1.1559,1.1552,1.1546,1.1559,1.1559,1.1535,1.1534,1.1534,1.152,0,0,0,0,0,0,1.1546,1.1546,1.1542,1.1546,1.1546,1.1539,1.155,1.1551,1.1551,1.1552,1.1554,1.1555,1.1559,1.1553,1.1552,1.1545,1.1559,1.1536,1.1535,1.1534,1.1521,1.1519,1.1517,0,0,0,0,0,1.1546,1.1538,1.1542,1.1542,1.1542,1.1539,1.1539,1.1545,1.155,1.1546,1.1549,1.1555,1.1547,1.1552,1.1551,1.1544,1.1536,1.1535,1.1534,1.1522,1.1519,1.1517,0,0,0,0,0,0,1.1533,1.1539,1.1543,1.1536,1.1537,1.1541,1.1536,1.1542,1.1541,1.1542,1.1548,1.1549,1.1541,1.1542,1.1548,1.1534,1.1542,1.1541,1.1533,1.1531,1.1529,1.1528,1.1559,0,0,0,0,0,1.153,1.1527,1.1532,1.1525,1.1526,1.1531,1.153,1.1534,1.1535,1.1535,1.1538,1.1538,1.1535,1.1533,1.1531,1.1521,1.1521,1.1516,1.1514,1.1512,1.1511,1.1504,1.1502,1.153,1.153,1.153,0,0,1.1522,1.1525,1.1523,1.1523,1.1524,1.1521,1.1531,1.1527,1.1525,1.1535,1.1529,1.153,1.1531,1.1522,1.1519,1.1523,1.1503,1.1511,1.151,1.1509,1.1503,1.15,1.1498,1.1529,1.1529,1.1529,0,0,1.1506,1.1508,1.1503,1.1504,1.1505,1.1509,1.1507,1.151,1.1512,1.1506,1.1513,1.151,1.1505,1.1505,1.1505,1.1488,1.1493,1.1487,1.1476,1.147,1.1468,1.1466,1.1458,1.1456,1.1486,1.1486,1.1486,0,1.1496,1.1492,1.1499,1.1494,1.1494,1.1503,1.1497,1.1497,1.1498,1.1497,1.1502,1.1496,1.1497,1.1488,1.1484,1.1484,1.1481,1.1486,1.1467,1.1466,1.1464,1.1457,1.1454,1.1485,1.1485,1.1485,1.1485,0,1.1479,1.1476,1.1471,1.1472,1.147,1.1465,1.147,1.1468,1.1473,1.1475,1.1469,1.147,1.1468,1.1467,1.1471,1.1458,1.146,1.1466,1.1475,1.146,1.1454,1.1451,1.1484,1.1484,1.1484,1.1485,0,0,1.1454,1.1459,1.1457,1.1457,1.1459,1.1457,1.1451,1.145,1.1447,1.1447,1.1442,1.1438,1.1443,1.1443,1.1447,1.1441,1.1426,1.1448,1.1448,1.1443,1.1411,1.1405,1.1402,1.143,1.143,1.143,1.141,0,1.1438,1.143,1.1436,1.1426,1.1423,1.1431,1.1426,1.1427,1.1429,1.1426,1.1428,1.1425,1.1433,1.1432,1.1427,1.1429,1.142,1.1431,1.1424,1.1424,1.1423,1.1399,1.1394,1.1376,1.1408,1.1408,1.1407,0,1.1418,1.1418,1.1408,1.141,1.1409,1.1404,1.1403,1.14,1.14,1.1402,1.1401,1.1406,1.14,1.141,1.1401,1.1408,1.1406,1.1406,1.1405,1.1404,1.1414,1.1396,1.137,1.1367,1.1404,1.1404,1.1404,0,1.14,1.1397,1.139,1.139,1.1393,1.1389,1.139,1.1391,1.1389,1.1388,1.1386,1.1384,1.1383,1.138,1.1384,1.1391,1.1374,1.1384,1.1374,1.1374,1.137,1.137,1.1342,1.137,1.137,1.137,1.137,0,1.1381,1.1374,1.1382,1.1377,1.1369,1.1376,1.1368,1.137,1.137,1.1366,1.1373,1.1369,1.1375,1.1371,1.1374,1.1365,1.1365,1.1365,1.1366,1.1364,1.1364,1.1362,1.1362,1.137,1.137,1.137,1.137,0,1.1358,1.1364,1.1356,1.136,1.136,1.1354,1.1357,1.1352,1.1355,1.1349,1.1348,1.1353,1.1348,1.1352,1.1348,1.135,1.1338,1.1341,1.1337,1.1338,1.1327,1.1328,1.1296,1.1292,1.1324,1.1324,1.1324,0,1.1345,1.134,1.1343,1.1341,1.1341,1.1337,1.1336,1.1342,1.134,1.1339,1.1335,1.1331,1.1328,1.132,1.1322,1.1318,1.132,1.131,1.132,1.1317,1.1318,1.1318,1.1317,1.1307,1.1307,1.1306,1.1306,0,1.1321,1.1323,1.1321,1.1319,1.1317,1.1315,1.1315,1.1312,1.1319,1.1315,1.1311,1.1309,1.1304,1.13,1.1296,1.1297,1.1302,1.1303,1.13,1.1297,1.1295,1.1295,1.133,1.1303,1.1304,1.1304,1.1304,1.1304,1.1302,1.1297,1.1298,1.1295,1.1295,1.1294,1.129,1.1292,1.1289,1.1285,1.1289,1.1283,1.1283,1.1279,1.1279,1.1273,1.1278,1.1274,1.1273,1.1272,1.127,1.1297,1.1273,1.1273,1.1273,1.1273,1.1273,0,1.1276,1.1277,1.1274,1.1273,1.127,1.1276,1.1276,1.1272,1.1267,1.1267,1.1264,1.1258,1.1253,1.1255,1.1251,1.1246,1.1248,1.1245,1.1244,1.1244,1.1267,1.1269,1.1243,1.1243,1.1243,1.1243,1.1243,1.1243,1.1263,1.1255,1.1258,1.1249,1.1251,1.1245,1.1244,1.1243,1.1242,1.1235,1.1232,1.1233,1.1233,1.1229,1.1225,1.1225,1.1223,1.1218,1.1219,1.124,1.1243,1.1245,1.1247,1.1217,1.1217,1.1196,1.1196,1.1196]}]]